Вернуться в каталог

DMC 3-FM2

АктивенНаукаSSO
NORAD 40716·PAYLOAD·🇬🇧 United Kingdom

Запущен Jul 10, 2015 с Satish Dhawan Space Centre

Loading…

Ближайшие Пролёты (ближайшие 24 часа)

TLE

СвежийSource: Space-Track

Эпоха: Sep 14, 2026, 22:22 UTC

1 40716U 15032B   26257.93207395  .00000807  00000-0  98562-4 0  9998
2 40716  97.6367 121.1662 0007327 114.8984 245.2994 14.85828851603230

Отслеживайте DMC 3-FM2 в реальном времени с AllMySat

Download on the App Store